Theta_e
318 312 314 311 301 298 293 297 303 302 303 306 308 309 310 308 310 306 311 313 323 327 334 340 342 342 343 343 343 342 341 341 341 340 338 337 336 335 335 334 335 336 336 335 336 334 332 330 329
312 312 311 304 297 291 293 299 299 304 306 303 302 303 304 306 300 304 312 319 328 331 334 336 339 340 340 339 338 338 337 338 338 338 336 336 335 334 333 332 331 332 331 331 330 329 327 329 330
314 312 307 301 295 292 293 299 302 305 305 304 302 299 303 305 300 306 314 323 325 327 332 333 337 338 338 337 336 336 335 335 336 335 334 333 331 331 331 330 330 330 330 328 327 330 330 329 327
309 308 306 296 294 296 298 302 303 303 304 305 303 302 298 301 303 306 309 323 322 326 329 333 335 337 336 336 335 334 333 333 332 332 332 330 328 328 328 328 327 327 327 327 331 329 329 332 333
307 305 298 296 295 297 300 303 304 303 302 302 302 303 300 299 302 308 316 321 321 324 328 330 334 334 333 333 333 331 330 329 329 328 327 327 326 326 325 325 325 325 326 330 328 328 329 329 332
301 304 296 295 296 300 302 305 305 302 302 301 301 298 302 300 302 309 317 318 320 321 324 328 328 331 332 332 331 330 328 326 326 326 325 324 323 323 323 323 323 325 329 329 329 328 328 330 332
299 298 297 296 295 299 302 307 302 303 302 300 302 301 301 297 303 312 316 316 318 319 321 322 325 326 326 328 328 327 326 325 323 323 322 321 321 321 321 321 323 329 329 328 328 328 328 331 331
300 300 295 297 297 298 304 305 307 304 303 300 302 300 302 300 304 312 313 314 315 315 316 316 318 319 320 320 322 323 323 322 320 319 318 317 317 318 319 321 324 328 327 327 326 327 327 328 328
302 296 294 296 296 300 303 304 304 303 305 299 300 301 299 299 309 309 309 309 310 311 312 312 313 313 313 314 315 317 318 317 316 313 312 310 311 311 313 317 325 324 326 326 324 324 322 321 321
297 294 296 299 300 300 302 302 300 300 299 299 299 297 298 301 307 306 307 308 308 309 309 310 310 310 310 310 309 307 307 306 305 305 304 306 307 309 311 314 319 324 324 322 320 317 314 312 313
297 293 298 299 302 302 301 298 298 297 298 300 301 301 296 299 303 305 307 309 309 310 308 308 308 307 307 306 305 303 300 299 299 298 298 301 303 303 307 311 314 315 310 309 310 309 309 310 309
291 295 298 300 303 301 298 300 296 296 302 303 302 299 296 297 300 303 305 306 307 306 307 307 307 305 304 304 303 301 300 299 299 298 298 298 300 301 303 307 308 306 305 305 305 305 305 306 306
290 292 296 299 300 300 297 296 298 296 300 299 299 296 296 297 298 301 304 305 305 305 305 305 305 303 302 301 300 299 298 295 295 295 296 296 298 299 300 302 302 302 304 302 301 302 303 302 302
290 291 293 294 296 297 296 296 295 297 299 298 298 297 296 296 297 298 298 301 302 305 304 303 302 301 299 298 297 296 295 294 295 295 295 295 297 298 299 299 299 300 301 299 299 301 300 298 299
291 287 288 288 291 293 296 291 290 299 297 297 298 298 296 296 295 296 298 299 301 303 303 300 301 299 297 296 295 295 295 295 293 295 294 294 296 297 297 298 298 299 296 295 296 298 296 296 295
286 287 285 289 290 291 293 289 293 297 296 296 296 296 296 297 296 296 297 297 298 300 299 299 300 298 295 295 294 295 295 295 294 293 293 294 296 297 297 298 297 295 294 295 296 297 292 291 291
282 281 280 285 289 289 289 291 291 290 292 294 292 293 293 293 294 296 295 296 296 297 298 297 298 296 295 294 294 295 295 294 294 293 292 293 295 296 297 297 295 292 292 294 294 291 293 289 287
279 278 281 283 285 287 287 288 288 288 287 288 288 289 289 290 293 295 295 296 296 296 297 296 295 295 294 294 294 294 294 294 294 292 292 292 294 296 296 295 293 291 291 291 291 289 287 289 287
282 282 281 281 284 285 285 288 289 289 287 286 288 289 290 291 295 294 295 294 294 294 295 295 294 293 293 292 292 292 292 292 293 294 293 292 293 295 294 294 292 291 291 290 290 288 286 285 287
282 281 279 280 283 284 282 282 283 284 287 288 289 290 290 290 289 290 292 292 293 294 294 295 294 293 293 294 294 293 293 293 293 293 292 292 293 294 293 292 292 290 289 289 289 288 286 285 287
281 280 281 280 280 281 279 280 280 282 283 286 287 289 288 287 287 287 287 291 291 292 293 294 294 293 293 294 292 292 290 291 290 290 290 291 292 294 293 293 292 290 290 289 289 289 288 285 286
278 283 282 280 279 276 279 274 281 279 281 282 285 286 286 285 284 284 284 285 289 291 293 294 293 292 293 293 292 290 290 287 289 291 290 289 291 293 293 292 292 291 290 288 288 288 288 288 286
280 282 281 281 279 278 276 274 280 277 278 282 285 283 283 283 282 282 283 285 289 290 290 291 292 292 292 292 292 291 290 290 287 288 288 289 291 293 294 292 292 290 290 290 289 287 287 288 288
283 280 279 278 277 271 276 275 277 278 280 283 282 283 283 283 284 286 287 288 288 288 288 290 290 291 291 291 291 290 290 286 285 285 286 286 288 291 292 291 291 291 290 288 288 288 288 287 288
281 277 272 270 269 269 272 273 279 280 280 281 282 281 282 284 285 285 286 285 285 286 286 287 288 288 288 289 289 289 289 287 287 285 286 285 286 287 291 291 290 289 289 288 288 287 287 287 287
278 278 273 266 268 271 273 271 277 280 280 281 280 280 281 281 282 284 285 285 285 285 284 285 285 285 286 286 287 287 287 287 287 286 286 286 286 287 290 291 289 289 288 288 288 288 287 287 287
278 275 280 274 271 271 273 275 280 279 279 278 278 279 280 280 280 280 281 283 284 284 284 284 284 284 284 285 285 285 285 285 285 285 286 286 286 286 288 290 289 288 288 287 287 287 286 286 286
279 280 276 277 269 268 273 272 276 278 277 277 277 278 279 279 279 279 279 279 281 284 284 284 284 284 284 284 284 285 284 285 285 285 284 285 285 286 287 288 289 288 287 287 286 286 286 285 284
275 276 277 277 275 271 268 271 277 279 279 278 278 278 279 279 279 279 279 279 279 281 282 283 282 283 283 283 283 284 283 284 284 284 284 285 285 285 286 287 288 287 286 286 285 285 284 284 282
273 277 278 274 271 273 272 273 276 276 279 278 277 279 279 279 279 278 278 278 279 279 280 281 282 282 283 283 283 283 283 283 283 283 284 284 284 284 285 286 286 286 285 284 284 283 283 282 281
Wind_Speed
1 2 2 4 2 1 4 7 2 2 3 2 1 3 5 1 5 4 0 6 3 8 5 6 11 11 12 14 13 11 9 10 10 9 7 7 6 5 4 3 4 7 5 3 6 5 4 2 1
2 3 3 2 3 3 6 4 6 9 3 5 3 3 1 6 2 2 4 7 8 7 7 7 10 11 11 10 9 8 6 5 7 7 5 5 5 5 5 4 3 3 2 2 2 0 1 2 3
3 2 3 4 4 11 5 6 10 4 5 5 3 2 3 4 2 3 4 10 7 7 9 8 9 10 10 9 8 7 5 5 6 5 5 5 4 4 5 5 6 6 5 4 5 5 4 4 2
3 2 1 3 11 6 6 3 4 2 1 4 2 4 3 3 5 5 9 11 9 6 8 10 11 11 10 10 8 7 6 6 5 5 5 5 4 5 5 5 4 5 5 6 7 5 5 3 2
3 1 4 4 11 4 4 5 4 4 3 3 5 4 5 2 3 6 11 11 11 8 8 10 13 13 11 10 10 8 6 5 6 5 4 4 5 5 4 5 5 6 7 8 6 4 4 3 6
2 1 3 11 12 4 5 7 3 4 4 2 4 3 5 1 7 7 9 9 7 9 6 5 8 10 12 13 13 11 8 4 6 6 6 5 5 4 5 5 6 7 8 9 7 6 4 3 9
4 3 7 4 4 4 7 6 6 8 5 7 3 6 2 4 8 9 9 8 7 7 7 6 8 8 9 9 11 13 11 7 6 5 6 4 4 4 5 5 6 8 9 8 9 9 6 9 11
4 3 4 6 11 12 5 5 3 9 10 2 4 6 5 1 11 9 7 7 7 6 6 5 6 6 7 7 8 9 13 9 7 4 5 6 7 6 3 2 6 9 8 10 11 10 10 12 12
3 5 10 13 10 7 2 3 2 1 2 3 6 2 1 5 11 9 6 5 6 7 7 6 6 7 7 7 7 9 12 8 9 9 9 5 2 3 3 5 7 9 10 12 12 12 13 11 11
5 9 12 6 9 6 4 7 5 3 4 4 3 2 3 9 12 13 14 13 13 13 9 8 7 7 7 6 6 5 5 5 4 5 5 2 1 1 1 4 7 11 13 15 12 9 7 4 4
6 17 7 5 7 8 5 5 6 6 7 7 10 7 8 9 12 13 14 15 16 12 9 10 9 8 7 6 4 3 3 3 2 5 5 3 3 2 1 2 3 6 10 5 7 5 3 7 5
7 7 7 7 7 6 5 4 6 8 10 4 9 5 9 13 15 17 16 16 11 12 12 11 11 9 8 5 5 6 4 3 2 2 4 3 1 3 1 2 4 4 3 7 6 4 6 8 9
6 4 7 10 7 7 4 9 10 8 12 4 4 7 10 11 15 13 13 8 10 13 14 14 12 10 9 8 6 6 5 4 5 6 5 5 2 2 1 2 2 3 5 5 6 5 6 7 8
3 9 11 7 7 6 7 8 6 10 8 9 9 11 10 14 17 12 9 13 14 13 14 14 14 12 11 9 9 7 6 6 6 5 4 6 4 2 1 1 3 3 4 5 6 5 7 6 7
4 7 4 6 5 6 4 16 14 9 6 11 13 13 10 14 8 16 15 15 16 13 12 15 14 13 13 12 9 7 7 7 5 4 4 5 2 2 0 2 3 4 5 8 7 7 7 7 6
3 3 13 8 9 5 11 27 4 14 12 16 12 9 9 12 14 15 11 13 12 12 15 14 12 14 13 11 9 7 7 6 5 5 5 8 8 6 4 4 3 5 6 6 7 7 6 6 5
5 9 5 5 11 5 7 27 2 3 11 15 11 12 13 12 11 13 12 14 13 15 15 15 15 16 14 12 9 9 9 5 4 4 4 5 5 6 5 4 4 5 6 6 7 5 4 6 6
8 6 5 12 5 4 7 24 7 2 6 10 9 9 10 11 19 8 13 13 12 13 14 14 13 14 13 9 7 6 6 6 6 5 5 6 6 7 6 4 4 6 6 6 5 6 5 5 6
1 10 9 2 6 6 14 20 14 9 7 9 13 12 13 15 16 9 9 11 12 12 14 16 16 16 13 9 8 5 7 7 7 7 8 8 4 7 7 5 6 6 7 8 8 6 7 4 5
6 12 16 3 4 6 3 17 10 8 14 12 16 18 18 14 8 5 7 9 13 15 16 15 16 17 15 11 8 4 7 4 5 6 6 6 8 7 6 7 7 8 6 8 9 8 5 3 3
17 18 21 12 4 3 3 13 7 8 10 11 13 17 10 10 9 8 8 10 10 13 14 16 17 16 14 12 8 6 6 5 5 7 7 8 9 11 10 11 9 9 8 8 9 8 7 6 3
17 10 18 7 4 10 3 12 16 5 11 8 17 12 13 8 7 6 6 7 11 12 10 12 13 15 13 15 12 14 7 7 6 7 7 8 12 10 12 11 11 10 8 8 9 7 4 6 7
10 4 9 13 14 6 6 3 15 3 7 12 15 8 7 5 5 6 6 6 5 8 10 10 12 14 13 14 14 11 9 5 6 7 11 11 9 10 10 9 10 10 8 9 10 9 7 4 6
7 4 3 3 4 6 15 13 27 9 8 7 2 5 3 1 1 0 2 3 3 4 7 10 12 13 13 14 14 15 13 10 8 8 8 8 7 7 9 10 10 9 9 10 10 9 9 7 5
1 5 2 2 3 10 6 10 24 4 4 6 6 6 4 4 5 4 5 4 4 6 7 8 11 11 12 14 13 13 12 12 12 11 9 10 7 7 10 10 9 8 9 9 9 9 9 9 7
9 11 6 7 7 8 2 11 11 6 3 3 7 7 5 6 5 5 5 4 4 6 6 7 9 9 11 10 11 9 10 8 7 9 8 8 9 9 10 10 9 10 10 9 8 7 8 8 6
5 10 7 4 2 1 5 8 10 8 4 4 7 6 6 5 6 6 5 5 4 4 5 6 7 6 8 10 8 9 9 9 9 9 8 7 7 7 10 10 10 10 10 10 10 7 8 8 6
4 2 4 4 7 6 5 6 12 1 6 6 6 7 5 3 6 7 6 6 4 4 2 4 5 6 6 7 8 8 9 8 7 8 9 9 8 9 10 11 10 10 9 10 10 7 6 7 4
4 3 2 0 3 5 2 8 6 6 5 13 10 8 6 5 6 6 5 5 5 5 4 2 3 4 5 6 6 7 7 8 8 8 8 8 7 9 9 10 10 10 9 8 8 7 9 8 7
1 7 10 5 5 2 1 13 0 7 6 9 8 6 5 5 5 5 5 5 6 6 6 4 0 4 5 5 6 7 7 8 8 8 8 8 9 8 9 9 9 9 9 9 9 8 8 9 8
Wind_Direction
70 69 86 51 110 69 238 233 212 218 226 170 107 150 205 225 177 210 330 220 199 178 186 162 125 115 114 124 123 113 124 129 131 132 137 146 141 136 126 83 84 85 70 72 64 63 64 12 295
132 111 44 87 147 210 241 228 217 223 170 137 130 132 226 249 253 256 154 189 172 145 132 121 119 122 118 118 111 125 139 140 138 140 144 154 162 148 139 122 119 150 99 95 103 297 156 171 219
129 54 127 174 186 222 223 207 225 252 169 182 188 251 179 223 216 210 190 160 158 136 128 118 115 123 130 129 134 139 144 149 132 133 154 150 147 149 148 140 132 138 139 137 156 155 175 137 179
140 45 28 192 228 249 213 209 207 232 190 221 147 246 258 237 161 191 161 161 153 151 133 135 129 131 130 125 125 129 136 136 131 152 141 139 170 158 146 139 141 142 147 158 159 124 127 108 124
55 123 224 228 249 248 241 247 196 231 229 194 166 247 247 223 164 155 163 163 162 155 145 144 135 141 144 141 132 134 135 147 150 168 164 174 166 157 159 163 163 164 172 165 133 121 102 104 114
167 208 226 228 235 232 237 218 209 210 216 166 185 163 244 97 161 177 162 168 168 158 143 140 138 144 150 151 144 143 139 160 167 157 156 163 166 172 177 180 178 176 172 123 126 115 102 98 108
190 193 233 216 242 240 231 186 199 214 200 223 164 184 249 224 196 161 168 168 166 165 159 151 138 135 131 142 144 143 141 154 171 166 152 160 167 180 179 186 194 185 129 130 126 110 99 113 110
165 198 220 220 235 260 209 186 219 183 222 80 161 218 243 188 158 151 156 174 173 178 171 152 135 131 126 123 119 124 125 136 142 123 96 73 45 34 1 312 230 130 131 126 110 103 80 79 87
139 231 229 229 191 236 192 194 185 188 187 207 197 232 35 118 134 141 161 187 190 197 185 169 157 144 141 131 126 114 112 117 118 104 76 54 38 24 348 330 149 141 137 118 109 94 80 74 85
183 225 228 200 194 217 210 188 189 173 203 233 250 210 96 146 166 174 189 198 201 201 193 183 173 165 151 141 130 106 98 112 106 110 95 75 25 30 79 47 61 123 112 108 101 93 81 74 78
205 237 214 215 205 211 212 207 184 190 242 204 204 209 167 175 188 194 204 206 207 196 191 189 178 168 161 144 133 120 96 91 76 94 86 57 7 339 339 74 96 102 93 90 97 106 86 83 64
235 232 220 215 203 176 221 154 204 188 229 200 218 165 167 186 198 204 211 206 190 186 195 183 183 176 172 153 160 147 136 120 119 83 82 92 11 307 305 106 106 87 89 110 104 104 96 88 79
237 209 218 236 216 224 146 220 221 217 244 214 158 181 192 203 212 220 223 198 187 195 194 190 180 183 174 169 162 159 156 151 163 161 170 117 153 261 305 89 86 100 119 117 116 114 100 90 78
232 212 233 225 222 219 207 253 159 229 230 217 215 220 208 212 213 218 194 207 198 201 196 184 186 181 170 171 166 162 156 157 165 151 152 128 145 213 240 136 121 120 117 117 117 120 110 88 93
249 255 273 220 206 232 134 270 226 227 197 223 224 233 226 228 216 224 218 215 207 204 185 185 185 176 174 174 165 159 164 158 144 139 119 104 102 188 142 200 185 138 125 120 110 104 91 88 75
237 192 246 213 158 224 162 258 300 209 192 223 228 239 240 245 228 231 218 213 204 193 185 182 181 179 174 172 160 160 160 158 158 142 138 163 179 188 190 200 180 152 132 131 124 125 99 89 90
236 249 220 279 201 145 191 258 184 137 197 234 234 243 249 258 250 238 218 214 202 197 184 179 177 176 174 168 163 160 155 144 147 132 149 184 163 170 182 189 163 149 140 138 139 112 107 107 92
197 224 233 236 195 185 190 257 247 209 203 244 259 255 255 254 251 224 218 213 200 195 188 177 173 172 166 156 142 138 147 153 151 155 172 183 172 170 175 157 159 156 144 143 120 121 76 112 114
190 223 240 227 202 162 219 243 256 253 250 253 260 253 256 251 264 204 205 203 199 194 181 180 172 170 161 158 156 165 175 169 170 173 180 173 180 177 172 149 160 170 163 158 145 118 120 102 120
247 245 251 282 173 185 231 259 260 240 254 225 235 249 247 248 258 225 208 202 201 198 196 182 179 173 176 175 170 158 152 171 173 179 176 189 185 162 168 157 169 172 151 157 162 151 134 106 140
229 232 250 246 171 239 329 274 245 242 256 252 247 244 255 234 244 250 226 216 208 203 192 185 183 175 173 166 140 119 109 113 163 189 184 185 211 185 173 179 170 171 171 175 176 169 161 140 172
236 224 252 230 192 246 188 278 271 221 242 231 250 240 252 243 248 248 245 236 209 205 184 179 170 167 170 162 166 168 173 164 189 184 173 185 191 194 194 174 169 178 171 177 182 170 163 147 159
240 197 220 224 223 237 224 256 269 147 257 254 255 236 226 231 238 252 260 251 217 167 169 165 162 167 164 170 177 178 179 159 154 158 175 187 190 195 187 173 177 173 180 183 177 171 169 178 160
134 119 94 90 139 220 226 199 270 214 201 246 185 154 183 223 213 20 31 92 104 136 141 151 159 170 167 177 181 186 185 156 151 162 175 183 183 183 185 176 181 181 181 180 181 182 176 176 157
154 147 192 212 181 235 177 176 238 219 215 209 202 150 136 101 96 97 99 114 135 145 146 152 163 171 173 180 183 185 184 174 175 171 175 170 179 188 192 182 178 180 188 183 174 176 178 176 174
176 223 171 213 212 222 157 226 241 232 259 221 136 150 133 103 93 78 79 105 127 141 152 156 166 166 173 178 184 184 176 179 180 176 173 182 189 190 174 177 177 177 177 179 178 181 185 177 183
173 215 213 98 55 239 202 275 290 201 213 156 157 158 155 115 97 80 59 54 89 137 168 170 171 169 177 184 173 176 172 171 181 176 173 177 175 170 168 178 176 179 176 174 171 186 184 178 177
132 311 163 166 194 215 239 262 239 284 187 165 175 171 195 119 74 55 42 33 33 66 153 176 177 183 178 172 178 182 181 182 169 162 178 177 170 166 170 176 176 174 174 173 171 169 174 168 149
115 223 347 338 199 190 263 255 230 273 205 185 169 168 163 105 74 63 50 30 32 41 54 107 180 180 184 183 173 170 176 171 163 175 177 178 163 169 174 179 175 173 170 168 171 169 158 159 152
26 204 189 222 207 237 296 257 83 276 232 146 158 147 102 83 73 63 51 36 29 26 26 25 97 199 196 183 173 181 164 165 169 176 174 164 175 171 171 170 173 168 166 160 161 161 156 155 155